Torna al catalogo

THOR ABLESTAR DEB

AttivoLEO
NORAD 355·DEBRIS·🇺🇸 United States

Lanciato Jun 29, 1961 da Cape Canaveral Space Force Station

Loading…

Prossimi Passaggi (prossime 24 ore)

TLE

AggiornatoSource: Space-Track

Epoca: Sep 7, 2026, 06:24 UTC

1 00355U 61015DV  26250.26691817  .00000297  00000-0  61183-3 0  9991
2 00355  67.2250 189.6695 0241260 149.5277   0.1064 13.34223941159975

Traccia THOR ABLESTAR DEB in tempo reale con AllMySat

Download on the App Store